Lewistown, MT

5:45 PM MDT on September 25, 2017 (GMT -0600)
Lewistown Municipal

Weather History for KLWT - April, 2013

Change the Weather History Date:

Wednesday, April 24, 2013

  Actual Average Record
Temperature  
Mean Temperature 40 °F 44 °F  
Max Temperature 52 °F 56 °F 84 °F (1910)
Min Temperature 28 °F 31 °F 17 °F (1958)
Degree Days  
Heating Degree Days 25 21  
Month to date heating degree days 749 586  
Since 1 July heating degree days 7303 7385  
Cooling Degree Days 0 0  
Month to date cooling degree days 0 0  
Year to date cooling degree days 0 0  
Moisture  
Dew Point 26 °F    
Average Humidity 64    
Maximum Humidity 100    
Minimum Humidity 28    
Precipitation  
Precipitation 0.06 in 0.05 in 1.38 in (1994)
Month to date precipitation 1.23 1.06  
Year to date precipitation 3.36 3.06  
Snow  
Snow 0.00 in - - ()
Snow Depth 1.00 in    
Sea Level Pressure  
Sea Level Pressure 30.13 in    
Wind  
Wind Speed 10 mph (WNW)    
Max Wind Speed 23 mph    
Max Gust Speed 32 mph    
Visibility 7 miles    
Events Snow    
T = Trace of Precipitation, MM = Missing Value Source: NWS Daily Summary

Daily Weather History Graph

Daily Weather History Graph

Search for Another Location

Airport or City:

Trip Planner

Search our weather history database for the weather conditions in past years. The results will help you decide how hot, cold, wet, or windy it might be!

Date:

Astronomy

Apr. 24, 2013 Rise Set
Actual Time 6:13 AM MDT 8:19 PM MDT
Civil Twilight 5:40 AM MDT 8:52 PM MDT
Nautical Twilight 4:59 AM MDT 9:33 PM MDT
Astronomical Twilight 4:14 AM MDT 10:19 PM MDT
Moon 7:24 PM MDT (4/24) 5:23 AM MDT (4/24)
Length of Visible Light 15h 12m
Length of Day
14h 06m
Waxing Gibbous, 98% of the Moon is Illuminated
Apr 24
Waxing Gibbous
Apr 25
Full
May 2
Last Quarter
May 9
New
May 17
First Quarter

Hourly Weather History & Observations

Time (MDT) Temp. Windchill Dew Point Humidity Pressure Visibility Wind Dir Wind Speed Gust Speed Precip Events Conditions
12:07 AM 33.8 °F 28.6 °F 26.6 °F 75% 30.13 in 10.0 mi NNW 5.8 mph - N/A   Overcast
12:34 AM 30.2 °F 22.6 °F 28.4 °F 93% 30.14 in 1.8 mi NNW 8.1 mph - 0.00 in Snow Light Snow
12:44 AM 30.2 °F 23.4 °F 28.4 °F 93% 30.15 in 1.8 mi North 6.9 mph - 0.00 in Snow Light Snow
12:54 AM 30.0 °F 20.5 °F 28.0 °F 92% 30.21 in 1.2 mi North 11.5 mph - 0.01 in Snow Light Snow
1:04 AM 30.2 °F 21.3 °F 28.4 °F 93% 30.15 in 0.8 mi North 10.4 mph - 0.02 in Snow Light Snow
1:25 AM 28.4 °F 19.7 °F 28.4 °F 100% 30.15 in 1.0 mi North 9.2 mph - 0.04 in Snow Light Snow
1:54 AM 28.9 °F 22.8 °F 28.0 °F 96% 30.22 in 0.8 mi NNW 5.8 mph - 0.05 in Snow Light Snow
1:56 AM 28.4 °F 23.3 °F 28.4 °F 100% 30.15 in 1.0 mi WNW 4.6 mph - 0.00 in Snow Light Snow
2:17 AM 28.4 °F 21.2 °F 26.6 °F 93% 30.15 in 2.5 mi WNW 6.9 mph - 0.01 in Snow Light Snow
2:35 AM 28.4 °F 19.1 °F 28.4 °F 100% 30.15 in 1.2 mi West 10.4 mph - 0.01 in Snow Light Snow
2:52 AM 28.4 °F 19.7 °F 28.4 °F 100% 30.15 in 1.2 mi West 9.2 mph - 0.02 in Snow Light Snow
2:54 AM 28.9 °F 19.8 °F 28.0 °F 96% 30.21 in 1.5 mi West 10.4 mph - 0.02 in Snow Light Snow
2:59 AM 28.4 °F 19.7 °F 28.4 °F 100% 30.15 in 3.0 mi West 9.2 mph - 0.00 in Snow Light Snow
3:54 AM 28.9 °F 18.6 °F 28.0 °F 96% 30.21 in 10.0 mi West 12.7 mph - 0.00 in   Overcast
4:54 AM 28.9 °F 19.2 °F 27.0 °F 92% 30.23 in 9.0 mi West 11.5 mph - 0.00 in Snow Light Snow
5:22 AM 28.4 °F 19.1 °F 26.6 °F 93% 30.16 in 9.0 mi WNW 10.4 mph - 0.00 in   Overcast
5:54 AM 28.9 °F 21.9 °F 27.0 °F 92% 30.23 in 7.0 mi WNW 6.9 mph - 0.00 in Snow Light Snow
6:14 AM 28.4 °F 20.4 °F 26.6 °F 93% 30.16 in 9.0 mi WNW 8.1 mph - 0.00 in   Overcast
6:54 AM 28.9 °F 21.9 °F 27.0 °F 92% 30.24 in 10.0 mi WNW 6.9 mph - 0.00 in   Overcast
7:13 AM 28.4 °F 21.2 °F 28.4 °F 100% 30.17 in 9.0 mi WNW 6.9 mph - N/A   Overcast
7:54 AM 28.9 °F 19.8 °F 28.0 °F 96% 30.25 in 7.0 mi West 10.4 mph - 0.00 in   Overcast
8:54 AM 30.9 °F 21.2 °F 28.9 °F 92% 30.25 in 10.0 mi West 12.7 mph - 0.00 in   Mostly Cloudy
9:02 AM 30.2 °F 20.8 °F 28.4 °F 93% 30.17 in 10.0 mi West 11.5 mph - N/A   Scattered Clouds
9:21 AM 32.0 °F 22.5 °F 28.4 °F 87% 30.17 in 10.0 mi West 12.7 mph - N/A   Mostly Cloudy
9:54 AM 34.0 °F 25.5 °F 28.9 °F 82% 30.25 in 10.0 mi WNW 11.5 mph - N/A   Partly Cloudy
10:54 AM 37.0 °F 28.5 °F 28.9 °F 73% 30.22 in 10.0 mi WNW 13.8 mph - N/A   Partly Cloudy
11:54 AM 42.1 °F 33.1 °F 24.1 °F 49% 30.19 in 10.0 mi WNW 20.7 mph 27.6 mph N/A   Mostly Cloudy
12:54 PM 44.1 °F 36.5 °F 19.9 °F 38% 30.17 in 10.0 mi WNW 17.3 mph 25.3 mph N/A   Scattered Clouds
1:54 PM 46.9 °F - 19.9 °F 34% 30.13 in 10.0 mi NW 12.7 mph 24.2 mph N/A   Partly Cloudy
2:54 PM 48.9 °F - 19.0 °F 31% 30.10 in 10.0 mi West 11.5 mph 24.2 mph N/A   Partly Cloudy
3:54 PM 48.9 °F - 18.0 °F 29% 30.05 in 10.0 mi WSW 8.1 mph 17.3 mph N/A   Partly Cloudy
4:54 PM 51.1 °F - 19.9 °F 29% 30.01 in 10.0 mi WSW 8.1 mph - N/A   Clear
5:54 PM 51.1 °F - 19.9 °F 29% 29.98 in 10.0 mi Calm Calm - N/A   Clear
6:54 PM 51.1 °F - 21.9 °F 32% 29.94 in 10.0 mi WSW 5.8 mph - N/A   Clear
7:54 PM 48.0 °F - 26.1 °F 42% 29.94 in 10.0 mi Calm Calm - N/A   Clear
8:54 PM 48.0 °F - 24.1 °F 39% 29.94 in 10.0 mi West 10.4 mph - N/A   Clear
9:54 PM 43.0 °F 37.7 °F 28.0 °F 56% 29.94 in 10.0 mi SW 9.2 mph - N/A   Clear
10:54 PM 42.1 °F 37.1 °F 27.0 °F 55% 29.92 in 10.0 mi WSW 8.1 mph - N/A   Clear
11:54 PM 41.0 °F 35.2 °F 26.1 °F 55% 29.89 in 10.0 mi WSW 9.2 mph - N/A   Clear